| time (UTC) | temp F | wind direction | speed knots | gust knots | rain 1hr in | rain 24hr in | rain mn in | humidity % | barometer mb |
| 20260504004657 | 50 | 271 | 0.0 | 0.9 | 0.00 | 0.00 | 0.00 | 84 | 1022.3 |
| 20260504004157 | 50 | 271 | 0.0 | 1.7 | 0.00 | 0.00 | 0.00 | 84 | 1022.4 |
| 20260504003657 | 50 | 271 | 0.0 | 1.7 | 0.00 | 0.00 | 0.00 | 84 | 1022.2 |
| 20260504002156 | 51 | 271 | 0.0 | 0.0 | 0.00 | 0.00 | 0.00 | 84 | 1022.3 |
| 20260504001659 | 51 | 271 | 0.0 | 2.6 | 0.00 | 0.00 | 0.00 | 83 | 1022.3 |
| 20260504001155 | 51 | 272 | 0.0 | 2.6 | 0.00 | 0.00 | 0.00 | 83 | 1022.3 |
| 20260504000654 | 51 | 269 | 0.0 | 1.7 | 0.00 | 0.00 | 0.00 | 83 | 1022.3 |
| 20260503235656 | 52 | 269 | 0.0 | 1.7 | 0.00 | 0.00 | 0.00 | 82 | 1022.4 |
| 20260503235155 | 52 | 268 | 0.0 | 1.7 | 0.00 | 0.00 | 0.00 | 83 | 1022.4 |
| 20260503234656 | 52 | 267 | 0.0 | 1.7 | 0.00 | 0.00 | 0.00 | 83 | 1022.3 |
| 20260503234156 | 52 | 269 | 0.0 | 0.9 | 0.00 | 0.00 | 0.00 | 83 | 1022.4 |
| 20260503233654 | 52 | 269 | 0.0 | 0.9 | 0.00 | 0.00 | 0.00 | 83 | 1022.5 |
| 20260503233152 | 52 | 269 | 0.0 | 2.6 | 0.00 | 0.00 | 0.00 | 83 | 1022.5 |
| 20260503232150 | 52 | 280 | 0.0 | 1.7 | 0.00 | 0.00 | 0.00 | 82 | 1022.6 |
| 20260503231644 | 52 | 280 | 0.0 | 2.6 | 0.00 | 0.00 | 0.00 | 82 | 1022.5 |
| 20260503231138 | 53 | 281 | 0.0 | 2.6 | 0.00 | 0.00 | 0.00 | 81 | 1022.6 |
| 20260503230634 | 53 | 271 | 0.0 | 0.0 | 0.00 | 0.00 | 0.00 | 81 | 1022.6 |
| 20260503230126 | 53 | 271 | 0.0 | 0.0 | 0.00 | 0.00 | 0.00 | 81 | 1022.6 |
| 20260503225114 | 54 | 270 | 0.0 | 2.6 | 0.00 | 0.00 | 0.00 | 80 | 1022.5 |
| 20260503224608 | 54 | 271 | 0.0 | 2.6 | 0.00 | 0.00 | 0.00 | 80 | 1022.6 |
| 20260503223558 | 55 | 264 | 0.0 | 0.0 | 0.00 | 0.00 | 0.00 | 80 | 1022.6 |
| 20260503223049 | 55 | 264 | 0.0 | 0.0 | 0.00 | 0.00 | 0.00 | 80 | 1022.6 |
| 20260503222557 | 55 | 264 | 0.0 | 0.0 | 0.00 | 0.00 | 0.00 | 80 | 1022.5 |
| 20260503222039 | 55 | 264 | 0.0 | 0.0 | 0.00 | 0.00 | 0.00 | 80 | 1022.5 |
| 20260503221031 | 55 | 264 | 0.0 | 0.0 | 0.00 | 0.00 | 0.00 | 79 | 1022.4 |
| 20260503220532 | 55 | 264 | 0.0 | 0.0 | 0.00 | 0.00 | 0.00 | 79 | 1022.4 |
| 20260503220030 | 56 | 277 | 0.0 | 0.0 | 0.00 | 0.00 | 0.00 | 78 | 1022.3 |
| 20260503215040 | 56 | 277 | 0.0 | 0.0 | 0.00 | 0.00 | 0.00 | 77 | 1022.2 |
| 20260503214527 | 56 | 277 | 0.0 | 0.0 | 0.00 | 0.00 | 0.00 | 77 | 1022.1 |
| 20260503214026 | 57 | 277 | 0.0 | 0.9 | 0.00 | 0.00 | 0.00 | 76 | 1022.2 |
| 20260503213524 | 57 | 277 | 0.0 | 0.9 | 0.00 | 0.00 | 0.00 | 76 | 1022.0 |
| 20260503213021 | 58 | 278 | 0.0 | 0.0 | 0.00 | 0.00 | 0.00 | 75 | 1022.0 |
| 20260503212519 | 58 | 279 | 0.0 | 0.0 | 0.00 | 0.00 | 0.00 | 75 | 1022.0 |
| 20260503212018 | 58 | 279 | 0.0 | 0.0 | 0.00 | 0.00 | 0.00 | 75 | 1022.0 |
| 20260503211517 | 58 | 279 | 0.0 | 1.7 | 0.00 | 0.00 | 0.00 | 74 | 1022.0 |
| 20260503211015 | 58 | 280 | 0.0 | 1.7 | 0.00 | 0.00 | 0.00 | 74 | 1022.0 |
| 20260503210515 | 59 | 283 | 0.0 | 0.9 | 0.00 | 0.00 | 0.00 | 73 | 1022.0 |
| 20260503210015 | 59 | 276 | 0.0 | 0.9 | 0.00 | 0.00 | 0.00 | 72 | 1021.9 |
| 20260503205514 | 59 | 274 | 0.0 | 1.7 | 0.00 | 0.00 | 0.00 | 71 | 1021.9 |
| 20260503205015 | 60 | 270 | 0.0 | 1.7 | 0.00 | 0.00 | 0.00 | 71 | 1021.9 |
| 20260503203513 | 60 | 284 | 0.9 | 4.3 | 0.00 | 0.00 | 0.00 | 71 | 1021.7 |
| 20260503203013 | 61 | 297 | 0.9 | 4.3 | 0.00 | 0.00 | 0.00 | 70 | 1021.7 |
| 20260503202509 | 61 | 281 | 0.0 | 4.3 | 0.00 | 0.00 | 0.00 | 69 | 1021.6 |
| 20260503201507 | 62 | 271 | 0.0 | 0.9 | 0.00 | 0.00 | 0.00 | 68 | 1021.4 |
| 20260503201007 | 62 | 271 | 0.0 | 3.5 | 0.00 | 0.00 | 0.00 | 68 | 1021.3 |
| 20260503200506 | 62 | 271 | 0.0 | 3.5 | 0.00 | 0.00 | 0.00 | 68 | 1021.3 |
| 20260503200009 | 62 | 271 | 0.0 | 2.6 | 0.00 | 0.00 | 0.00 | 68 | 1021.2 |
| 20260503195507 | 62 | 271 | 0.0 | 0.0 | 0.00 | 0.00 | 0.00 | 67 | 1021.2 |
| 20260503194504 | 63 | 271 | 0.0 | 2.6 | 0.00 | 0.00 | 0.00 | 66 | 1021.2 |
| 20260503193003 | 64 | 246 | 0.0 | 1.7 | 0.00 | 0.00 | 0.00 | 64 | 1021.1 |
| 20260503192503 | 65 | 273 | 0.0 | 2.6 | 0.00 | 0.00 | 0.00 | 63 | 1021.0 |
| 20260503192003 | 65 | 274 | 0.0 | 2.6 | 0.00 | 0.00 | 0.00 | 61 | 1021.0 |
| 20260503191506 | 66 | 320 | 0.0 | 1.7 | 0.00 | 0.00 | 0.00 | 60 | 1020.9 |
| 20260503191003 | 66 | 264 | 0.0 | 1.7 | 0.00 | 0.00 | 0.00 | 60 | 1020.9 |
| 20260503190504 | 66 | 310 | 0.0 | 1.7 | 0.00 | 0.00 | 0.00 | 59 | 1020.8 |
| 20260503190000 | 66 | 342 | 0.0 | 0.9 | 0.00 | 0.00 | 0.00 | 59 | 1020.8 |
| 20260503185502 | 67 | 281 | 0.0 | 0.0 | 0.00 | 0.00 | 0.00 | 59 | 1020.8 |
| 20260503185001 | 67 | 281 | 0.0 | 0.0 | 0.00 | 0.00 | 0.00 | 59 | 1020.7 |
| 20260503184502 | 67 | 281 | 0.0 | 0.0 | 0.00 | 0.00 | 0.00 | 59 | 1020.6 |
| 20260503184000 | 67 | 304 | 0.0 | 0.0 | 0.00 | 0.00 | 0.00 | 58 | 1020.6 |
| 20260503183502 | 67 | 306 | 0.0 | 0.0 | 0.00 | 0.00 | 0.00 | 58 | 1020.5 |
| 20260503183001 | 68 | 307 | 0.0 | 0.9 | 0.00 | 0.00 | 0.00 | 58 | 1020.6 |
| 20260503182503 | 68 | 279 | 0.0 | 0.9 | 0.00 | 0.00 | 0.00 | 58 | 1020.5 |
| 20260503182001 | 68 | 279 | 0.0 | 2.6 | 0.00 | 0.00 | 0.00 | 58 | 1020.5 |
| 20260503181459 | 68 | 281 | 0.0 | 2.6 | 0.00 | 0.00 | 0.00 | 58 | 1020.5 |
| 20260503180457 | 69 | 297 | 0.0 | 0.0 | 0.00 | 0.00 | 0.00 | 56 | 1020.4 |
| 20260503175956 | 70 | 297 | 0.0 | 0.9 | 0.00 | 0.00 | 0.00 | 55 | 1020.4 |
| 20260503175454 | 70 | 298 | 0.0 | 0.9 | 0.00 | 0.00 | 0.00 | 53 | 1020.4 |
| 20260503174451 | 71 | 303 | 0.0 | 0.9 | 0.00 | 0.00 | 0.00 | 51 | 1020.4 |
| 20260503173948 | 72 | 316 | 0.0 | 0.9 | 0.00 | 0.00 | 0.00 | 50 | 1020.3 |
| 20260503173447 | 73 | 342 | 0.0 | 0.9 | 0.00 | 0.00 | 0.00 | 48 | 1020.3 |
| 20260503171943 | 74 | 300 | 0.0 | 0.0 | 0.00 | 0.00 | 0.00 | 45 | 1020.2 |
| 20260503171441 | 75 | 305 | 0.0 | 0.0 | 0.00 | 0.00 | 0.00 | 43 | 1020.3 |
| 20260503170439 | 76 | 294 | 0.0 | 0.0 | 0.00 | 0.00 | 0.00 | 40 | 1020.2 |
| 20260503150417 | 77 | 266 | 0.9 | 6.1 | 0.00 | 0.00 | 0.00 | 42 | 1020.5 |
| 20260503131345 | 77 | 350 | 1.7 | 7.8 | 0.00 | 0.00 | 0.00 | 39 | 1021.7 |
| 20260503130837 | 77 | 226 | 1.7 | 7.8 | 0.00 | 0.00 | 0.00 | 41 | 1021.7 |
| 20260503130331 | 77 | 271 | 0.9 | 6.1 | 0.00 | 0.00 | 0.00 | 41 | 1021.7 |
| 20260503120218 | 76 | 346 | 0.9 | 7.0 | 0.00 | 0.00 | 0.00 | 39 | 1022.1 |
| 20260503110201 | 73 | 189 | 0.9 | 4.3 | 0.00 | 0.00 | 0.00 | 45 | 1022.3 |
| 20260503100151 | 71 | 161 | 0.9 | 3.5 | 0.00 | 0.00 | 0.00 | 51 | 1023.0 |
| 20260503090147 | 66 | 108 | 0.9 | 4.3 | 0.00 | 0.00 | 0.00 | 63 | 1023.6 |
| 20260503081135 | 61 | 139 | 0.9 | 2.6 | 0.00 | 0.00 | 0.00 | 69 | 1023.9 |
| 20260503080630 | 61 | 150 | 0.0 | 3.5 | 0.00 | 0.00 | 0.00 | 70 | 1024.0 |
| 20260503080124 | 60 | 143 | 0.0 | 3.5 | 0.00 | 0.00 | 0.00 | 70 | 1024.0 |
| 20260503072542 | 58 | 116 | 0.0 | 2.6 | 0.00 | 0.00 | 0.00 | 73 | 1024.2 |
| 20260503072036 | 58 | 120 | 0.0 | 2.6 | 0.00 | 0.00 | 0.00 | 72 | 1024.4 |
| 20260503071531 | 57 | 124 | 0.0 | 2.6 | 0.00 | 0.00 | 0.00 | 73 | 1024.4 |
| 20260503070517 | 57 | 98 | 0.0 | 2.6 | 0.00 | 0.00 | 0.00 | 72 | 1024.5 |
| 20260503054953 | 47 | 276 | 0.0 | 0.9 | 0.00 | 0.00 | 0.00 | 86 | 1024.6 |
| 20260503054453 | 47 | 276 | 0.0 | 0.0 | 0.00 | 0.00 | 0.00 | 87 | 1024.5 |
| 20260503053504 | 46 | 276 | 0.0 | 0.0 | 0.00 | 0.00 | 0.00 | 87 | 1024.4 |
| 20260503052948 | 45 | 276 | 0.0 | 0.0 | 0.00 | 0.00 | 0.00 | 87 | 1024.4 |
| 20260503052446 | 45 | 276 | 0.0 | 0.9 | 0.00 | 0.00 | 0.00 | 88 | 1024.4 |
| 20260503051945 | 44 | 276 | 0.0 | 0.9 | 0.00 | 0.00 | 0.00 | 88 | 1024.2 |
| 20260503051442 | 44 | 275 | 0.0 | 0.0 | 0.00 | 0.00 | 0.00 | 88 | 1024.4 |
| 20260503050935 | 44 | 275 | 0.0 | 0.0 | 0.00 | 0.00 | 0.00 | 88 | 1024.4 |
| 20260503045936 | 43 | 275 | 0.0 | 0.0 | 0.00 | 0.00 | 0.00 | 88 | 1024.2 |
| 20260503045433 | 43 | 275 | 0.0 | 0.0 | 0.00 | 0.00 | 0.00 | 88 | 1024.4 |
| 20260503044429 | 42 | 275 | 0.0 | 0.0 | 0.00 | 0.00 | 0.00 | 88 | 1024.2 |
| 20260503043932 | 42 | 275 | 0.0 | 0.0 | 0.00 | 0.00 | 0.00 | 88 | 1024.2 |
| 20260503043430 | 42 | 275 | 0.0 | 0.0 | 0.00 | 0.00 | 0.00 | 88 | 1024.1 |
| 20260503042929 | 42 | 275 | 0.0 | 0.0 | 0.00 | 0.00 | 0.00 | 88 | 1024.1 |
| 20260503042430 | 42 | 275 | 0.0 | 0.0 | 0.00 | 0.00 | 0.00 | 88 | 1024.1 |
| 20260503041928 | 42 | 275 | 0.0 | 0.0 | 0.00 | 0.00 | 0.00 | 87 | 1024.0 |
| 20260503041425 | 42 | 275 | 0.0 | 0.0 | 0.00 | 0.00 | 0.00 | 87 | 1024.0 |
| 20260503040926 | 42 | 275 | 0.0 | 0.0 | 0.00 | 0.00 | 0.00 | 87 | 1024.1 |
| 20260503035926 | 42 | 275 | 0.0 | 0.0 | 0.00 | 0.00 | 0.00 | 87 | 1024.0 |
| 20260503035427 | 42 | 275 | 0.0 | 0.0 | 0.00 | 0.00 | 0.00 | 87 | 1023.9 |
| 20260503034926 | 42 | 275 | 0.0 | 0.0 | 0.00 | 0.00 | 0.00 | 87 | 1024.0 |
| 20260503033938 | 42 | 275 | 0.0 | 0.0 | 0.00 | 0.00 | 0.00 | 86 | 1023.9 |
| 20260503033420 | 43 | 275 | 0.0 | 0.0 | 0.00 | 0.00 | 0.00 | 87 | 1023.9 |
| 20260503032913 | 43 | 275 | 0.0 | 0.0 | 0.00 | 0.00 | 0.00 | 86 | 1023.9 |
| 20260503031928 | 43 | 275 | 0.0 | 0.0 | 0.00 | 0.00 | 0.00 | 86 | 1023.9 |
| 20260503031413 | 43 | 275 | 0.0 | 0.0 | 0.00 | 0.00 | 0.00 | 86 | 1023.9 |
| 20260503030913 | 43 | 275 | 0.0 | 0.0 | 0.00 | 0.00 | 0.00 | 86 | 1023.8 |
| 20260503030414 | 43 | 275 | 0.0 | 0.0 | 0.00 | 0.00 | 0.00 | 86 | 1023.8 |
| 20260503025914 | 43 | 275 | 0.0 | 0.0 | 0.00 | 0.00 | 0.00 | 86 | 1023.8 |
| 20260503025413 | 43 | 274 | 0.0 | 0.0 | 0.00 | 0.00 | 0.00 | 86 | 1023.8 |
| 20260503024409 | 43 | 274 | 0.0 | 0.0 | 0.00 | 0.00 | 0.00 | 86 | 1023.8 |
| 20260503023407 | 44 | 275 | 0.0 | 0.0 | 0.00 | 0.00 | 0.00 | 85 | 1023.7 |
| 20260503022908 | 44 | 275 | 0.0 | 0.0 | 0.00 | 0.00 | 0.00 | 85 | 1023.7 |
| 20260503022405 | 44 | 275 | 0.0 | 0.0 | 0.00 | 0.00 | 0.00 | 85 | 1023.7 |
| 20260503021404 | 44 | 275 | 0.0 | 0.0 | 0.00 | 0.00 | 0.00 | 85 | 1023.8 |
| 20260503020357 | 44 | 275 | 0.0 | 0.0 | 0.00 | 0.00 | 0.00 | 85 | 1023.9 |
| 20260503015357 | 45 | 274 | 0.0 | 0.0 | 0.00 | 0.00 | 0.00 | 84 | 1023.9 |
| 20260503014855 | 45 | 274 | 0.0 | 0.0 | 0.00 | 0.00 | 0.00 | 84 | 1024.0 |
| 20260503014355 | 45 | 274 | 0.0 | 0.0 | 0.00 | 0.00 | 0.00 | 85 | 1023.9 |
| 20260503013855 | 45 | 274 | 0.0 | 0.0 | 0.00 | 0.00 | 0.00 | 85 | 1023.9 |
| 20260503013355 | 45 | 274 | 0.0 | 0.0 | 0.00 | 0.00 | 0.00 | 84 | 1023.9 |
| 20260503012855 | 45 | 274 | 0.0 | 0.0 | 0.00 | 0.00 | 0.00 | 84 | 1023.9 |
| 20260503012353 | 45 | 274 | 0.0 | 0.9 | 0.00 | 0.00 | 0.00 | 84 | 1023.9 |
| 20260503011351 | 45 | 274 | 0.0 | 0.0 | 0.00 | 0.00 | 0.00 | 85 | 1024.0 |
| 20260503010349 | 46 | 274 | 0.0 | 0.0 | 0.00 | 0.00 | 0.00 | 84 | 1024.0 |
| 20260503005847 | 46 | 274 | 0.0 | 0.0 | 0.00 | 0.00 | 0.00 | 84 | 1024.0 |